Location: U-46 Planetarium
(42.0300°N, 88.2740°W)
Time: 14:54:19
(UTC-06:00)

Cosmos 2278 - Pass Details

Date: 16 December 2017
Orbit: 839 x 854 km, 71.1° (Epoch: 19 January)

Event Time Altitude Azimuth Distance (km) Brightness Sun altitude
Rises 17:10:51 0° 187° (S) 3,387 7.3 -8.8°
Reaches altitude 10° 17:13:20 10° 182° (S) 2,459 6.5 -9.2°
Maximum altitude 17:18:47 51° 108° (ESE) 1,054 3.9 -10.1°
Drops below altitude 10° 17:24:17 10° 34° (NNE) 2,485 5.7 -11.1°
Enters shadow 17:24:46 - 33° (NNE) 2,665 5.8 -11.1°
